Location: Ferchesar
(52.6477°N, 12.4298°E)
Time: 20:21:44
(UTC+02:00)

A-11 Canister half - Pass Details

Date: 10 March 2021
Orbit: 1525 x 1683 km, 47.3° (Epoch: 11 April)

Event Time Altitude Azimuth Distance (km) Brightness Sun altitude
Exits shadow 01:34:02 22° 115° (ESE) 2,967 10.4 -39.1°
Drops below altitude 10° 01:38:46 10° 87° (E) 3,778 11.3 -38.8°
Sets 01:42:32 0° 74° (ENE) 4,741 12.1 -38.6°
